This demonstration page uses our WeatherBlox Daily Observations layout. Learn more.

Left ArrowRight Arrow

Hourly Observations for November 6, 2021

Temp ( °F °C ) Dew Point ( °F °C ) Humidity (%) Winds ( mph kmh ) Pressure ( in mb ) Visibility ( mi km ) Precip ( " mm )
12:53 am 00:53 Clear 33 0.6 25 -3.9 72 72 W 5 7 29.85 1011 10 16 0.00 0.00
1:53 am 01:53 Mostly Clear 32 0 25 -3.9 75 75 WSW 3 6 29.84 1011 10 16 0.00 0.00
2:53 am 02:53 Clear 33 0.6 27 -2.8 78 78 WSW 6 9 29.84 1011 10 16 0.00 0.00
3:53 am 03:53 Clear 31 -0.6 25 -3.9 79 79 W 5 7 29.84 1011 10 16 0.00 0.00
4:53 am 04:53 Clear 30 -1.1 24 -4.4 79 79 WSW 8 13 29.83 1010 10 16 0.00 0.00
5:53 am 05:53 Partly Cloudy 31 -0.6 26 -3.3 82 82 SW 3 6 29.85 1011 10 16 0.00 0.00
6:53 am 06:53 Mostly Cloudy 32 0 27 -2.8 82 82 SW 6 9 29.85 1011 10 16 0.00 0.00
7:53 am 07:53 Mostly Cloudy 34 1.1 28 -2.2 79 79 Calm 29.85 1011 10 16 0.00 0.00
8:53 am 08:53 Cloudy 34 1.1 28 -2.2 79 79 SSE 7 11 29.88 1012 10 16 0.00 0.00
9:53 am 09:53 Cloudy 39 3.9 30 -1.1 70 70 SSW 3 6 29.89 1012 10 16 0.00 0.00
10:53 am 10:53 Cloudy 45 7.2 27 -2.8 49 49 SW 6 9 29.89 1012 10 16 0.00 0.00
11:53 am 11:53 Sunny 49 9.4 27 -2.8 43 43 WSW 9 15 29.89 1012 10 16 0.00 0.00
12:53 pm 12:53 Sunny 52 11.1 28 -2.2 40 40 W 7 11 29.90 1012 10 16 0.00 0.00
1:53 pm 13:53 Sunny 52 11.1 28 -2.2 40 40 WNW 6 9 29.89 1012 10 16 0.00 0.00
2:53 pm 14:53 Sunny 55 12.8 29 -1.7 37 37 SW 10 17 29.88 1012 10 16 0.00 0.00
3:53 pm 15:53 Sunny 54 12.2 29 -1.7 38 38 SW 12 19 29.87 1012 10 16 0.00 0.00
4:53 pm 16:53 Sunny 50 10 30 -1.1 46 46 SW 12 19 29.88 1012 10 16 0.00 0.00
5:53 pm 17:53 Clear 44 6.7 31 -0.6 60 60 SW 12 19 29.88 1012 10 16 0.00 0.00
6:53 pm 18:53 Clear 43 6.1 30 -1.1 60 60 SW 12 19 29.89 1012 10 16 0.00 0.00
7:53 pm 19:53 Clear 43 6.1 30 -1.1 60 60 SW 12 19 29.88 1012 10 16 0.00 0.00
8:53 pm 20:53 Clear 37 2.8 30 -1.1 76 76 VRB 3 6 29.88 1012 10 16 0.00 0.00
9:53 pm 21:53 Clear 37 2.8 30 -1.1 76 76 SE 7 11 29.87 1012 10 16 0.00 0.00
10:53 pm 22:53 Partly Cloudy 37 2.8 30 -1.1 76 76 NW 5 7 29.86 1011 10 16 0.00 0.00
11:53 pm 23:53 Cloudy 37 2.8 31 -0.6 79 79 W 5 7 29.86 1011 10 16 0.00 0.00

Powered by AerisWeather